Flag for Germany Weather past 2 weeks in Celle, Lower Saxony, Germany

Now
30 °F

Light fog.


Feels Like: 30 °F
Forecast: 37 / 62 °F
Wind: 1 mph from West

Location: Celle Airport


UV Index: 3 (Moderate)

Visibility: N/A


Pressure: 30.42 "Hg

Humidity: 100%

Dew point: 30 °F

Location of CelleLocation

Historic Weather in Celle

°F

Celle temperature yesterday

Maximum temperature yesterday: 50 °F (at 2:20 PM)
Minimum temperature yesterday: 37 °F (at 11:20 PM)
Average temperature yesterday: 43 °F

Past Weeks' High & Low Weather Summary

 TemperatureHumidityPressure
High70 °F (Apr 2, 4:20 PM)100% (Apr 5, 11:50 PM)30.39 "Hg (Apr 5, 11:50 PM)
Low30 °F (Apr 16, 4:20 AM)38% (Apr 2, 6:20 PM)29.65 "Hg (Apr 3, 1:20 AM)
Average51 °F78%29.96 "Hg
* Reported Apr 1 5:20 AM — Apr 16 5:20 AM, Celle, Weather by CustomWeather, © 2014

Note: Actual official high and low records may vary slightly from our data, if they occured in-between our weather recording intervals... More about our weather records

Advertising

Historic Weather Conditions — Data for Previous 24 hours

 ConditionsComfort  
Time TempWeatherWind HumidityBarometerVisibility
5:20 AM
Apr 16
30 °FFog.No wind100%30.39 "HgN/A
4:20 AM30 °FFog.1 mph100%30.39 "HgN/A
3:20 AM32 °FFog.1 mph93%30.39 "HgN/A
2:20 AM32 °FFog.1 mph100%30.36 "HgN/A
12:20 AM36 °FFog.1 mph100%30.36 "HgN/A
11:20 PM
Apr 15
37 °FPassing clouds.2 mph100%30.33 "HgN/A
10:20 PM39 °FPassing clouds.3 mph93%30.30 "HgN/A
9:20 PM41 °FPassing clouds.1 mph93%30.30 "HgN/A
8:20 PM41 °FPartly sunny.2 mph93%30.27 "HgN/A
7:20 PM43 °FSprinkles. Partly sunny.8 mph81%30.24 "HgN/A
7:04 PM41 °FSprinkles. Partly sunny.10 mph87%30.24 "Hg5 mi
6:20 PM50 °FScattered showers. Broken clouds.8 mph58%30.21 "HgN/A
5:20 PM50 °FScattered showers. Broken clouds.9 mph58%30.18 "HgN/A
4:20 PM50 °FScattered clouds.9 mph58%30.18 "HgN/A
3:20 PM48 °FBroken clouds.9 mph66%30.21 "HgN/A
2:20 PM50 °FBroken clouds.10 mph54%30.18 "HgN/A
1:20 PM48 °FScattered clouds.10 mph58%30.18 "HgN/A
12:20 PM48 °FBroken clouds.12 mph58%30.18 "HgN/A
11:20 AM45 °FBroken clouds.8 mph66%30.18 "HgN/A
10:20 AM45 °FBroken clouds.12 mph66%30.15 "HgN/A
9:20 AM43 °FBroken clouds.9 mph76%30.15 "HgN/A
8:20 AM41 °FBroken clouds.7 mph76%30.12 "HgN/A
7:20 AM41 °FPassing clouds.7 mph76%30.12 "HgN/A
6:20 AM39 °FPassing clouds.6 mph75%30.09 "HgN/A
Weather by CustomWeather, © 2014

See weather overview